Location: Oklahoma City
(35.4680°N, 97.5160°W)
Time: 23:26:47
(UTC-06:00)

ISS - All Passes

Search period start: 25 February 2017 00:00
Search period end: 07 March 2017 00:00
Orbit: 399 x 408 km, 51.6° (Epoch: 26 February)

Date Brightness Start Highest point End Pass type
(mag) Time Alt. Az. Time Alt. Az. Time Alt. Az.
25 Feb - 06:55:36 10° SSE 06:57:40 16° SE 06:59:46 10° E daylight
25 Feb - 08:30:45 10° WSW 08:33:52 40° NW 08:37:01 10° NE daylight
25 Feb - 15:00:47 10° NW 15:04:01 55° NE 15:07:14 10° ESE daylight
25 Feb - 16:39:04 10° WSW 16:40:05 11° SW 16:41:08 10° SW daylight
26 Feb - 07:38:04 10° SW 07:41:20 85° NW 07:44:39 10° NE daylight
26 Feb - 09:16:44 10° NW 09:18:14 12° NNW 09:19:44 10° N daylight
26 Feb - 14:08:31 10° NNW 14:11:25 28° NE 14:14:19 10° E daylight
26 Feb - 15:45:07 10° WNW 15:47:47 23° SW 15:50:26 10° S daylight
27 Feb - 06:45:45 10° SSW 06:48:53 42° SE 06:52:01 10° ENE daylight
27 Feb - 08:23:01 10° W 08:25:28 19° NNW 08:27:56 10° NNE daylight
27 Feb - 13:16:26 10° NNW 13:18:43 17° NNE 13:21:00 10° ENE daylight
27 Feb - 14:52:11 10° WNW 14:55:24 51° SW 14:58:33 10° SSE daylight
28 Feb - 05:54:00 10° S 05:56:29 20° SE 05:58:58 10° E visible
28 Feb - 07:29:46 10° WSW 07:32:47 32° NW 07:35:48 10° NNE daylight
28 Feb - 12:24:47 10° N 12:25:55 11° NNE 12:27:03 10° NE daylight
28 Feb - 13:59:37 10° NW 14:02:53 71° NE 14:06:08 10° SE daylight
01 Mar - 06:36:54 10° SW 06:40:10 66° NW 06:43:28 10° NE daylight
01 Mar - 08:16:11 10° NW 08:17:10 11° NNW 08:18:09 10° N daylight
01 Mar - 13:07:14 10° NNW 13:10:17 34° NE 13:13:19 10° ESE daylight
01 Mar - 14:44:11 10° W 14:46:33 18° SW 14:48:54 10° S daylight
02 Mar - 05:44:26 10° SSW 05:47:39 55° SE 05:50:53 10° ENE visible
02 Mar - 07:22:07 10° WNW 07:24:20 17° NNW 07:26:33 10° NNE daylight
02 Mar - 12:15:03 10° NNW 12:17:34 20° NNE 12:20:05 10° E daylight
02 Mar - 13:51:03 10° WNW 13:54:08 39° SW 13:57:12 10° SSE daylight
03 Mar - 04:52:26 10° S 04:55:11 25° SE 04:57:57 10° ENE visible
03 Mar - 06:28:43 10° W 06:31:35 27° NW 06:34:28 10° NNE visible
03 Mar - 11:23:09 10° N 11:24:45 13° NNE 11:26:22 10° NE daylight
03 Mar - 12:58:20 10° NW 13:01:38 89° SW 13:04:54 10° SE daylight
04 Mar - 04:01:27 10° SSE 04:02:48 12° SE 04:04:10 10° ESE visible
04 Mar - 05:35:42 10° WSW 05:38:54 51° NW 05:42:08 10° NE visible
04 Mar - 12:05:52 10° NW 12:09:01 42° NE 12:12:10 10° ESE daylight
04 Mar - 13:43:17 10° W 13:45:11 15° SW 13:47:06 10° SSW daylight
05 Mar - 04:43:03 10° SW 04:46:18 72° SE 04:49:35 10° NE visible
05 Mar - 06:21:11 10° WNW 06:23:05 14° NNW 06:25:00 10° N visible
05 Mar - 11:13:35 10° NNW 11:16:18 23° NNE 11:19:01 10° E daylight
05 Mar - 12:49:50 10° WNW 12:52:46 30° SW 12:55:41 10° SSE daylight
06 Mar - 03:50:50 10° SSW 03:53:47 31° SE 03:56:45 10° ENE visible
06 Mar - 05:27:35 10° W 05:30:16 23° NNW 05:32:58 10° NNE visible
06 Mar - 10:21:31 10° N 10:23:29 15° NNE 10:25:26 10° ENE daylight
06 Mar - 11:56:58 10° NW 12:00:15 69° SW 12:03:29 10° SE daylight
